Location: Pedholt
(56.0260°N, 10.2097°E)
Time: 06:31:48
(UTC+00:00)

Lacrosse 5 - Pass Details

Date: 14 July 2020
Orbit: 717 x 720 km, 57.0° (Epoch: 11 August)

Event Time Altitude Azimuth Distance (km) Brightness Sun altitude
Exits shadow 00:10:40 14° 215° (SW) 1,946 3.5 -11.7°
Maximum altitude 00:14:47 46° 146° (SE) 959 2.2 -11.6°
Drops below altitude 10° 00:19:38 10° 73° (ENE) 2,207 4.8 -11.5°
Sets 00:22:05 0° 68° (ENE) 3,130 5.7 -11.4°
